User: anonymous   Login
Location: Unspecified
(0.0000°N, 0.0000°E)
Time: 12:27:14
(UTC+00:00)
Language:

Tiros 10 - Orbit

View from above orbital plane
View from above orbital plane
View from above satellite
View from above satellite

Ground track
Ground track

The orbit data is extracted from the following two-line orbital elements,

1 01430U 65051A   16341.08530206  .00000016  00000-0  17679-4 0  9995
2 01430  98.1155 138.9766 0057658 119.2228 241.4744 14.40170704695302
Epoch (UTC): 06 December 2016 02:02:50
Eccentricity: 0.0057658
inclination: 98.1155°
perigee height: 717 km
apogee height: 799 km
right ascension of ascending node: 138.9766°
argument of perigee: 119.2228°
revolutions per day: 14.40170704
mean anomaly at epoch: 241.4744°
orbit number at epoch: 69530

The dashed part of the orbit path shows where the satellite is in the earth's shadow,  

DLR